Wind_Speed
15 16 17 17 16 16 16 16 16 15 12 11 11 11 10 10 10 11 13 12 12 10 8 9 9 10 9 8 7 6 4 3 2 2 2 2 2 3 4 5 6 6 8 8 8 8 8 9 8 7 7 7 7 6 5 5 7 9 10 11 10 9 9 9 10 11 12 12 11 10 10 10 10 10 10 10 11 10 10 10 10 11 11 14 15
13 12 14 15 14 13 15 15 15 15 13 11 11 11 11 10 10 11 12 10 10 9 8 8 8 8 7 7 6 5 4 2 1 2 2 3 3 4 5 6 6 7 8 8 8 8 8 9 8 7 7 7 7 6 6 6 7 9 10 10 9 9 9 10 10 11 12 12 11 11 10 10 10 10 10 11 11 11 10 11 11 12 14 15 15
11 11 11 12 12 12 13 13 14 15 14 12 12 13 12 10 9 10 10 9 9 8 8 7 6 6 7 6 5 4 3 2 1 1 2 3 3 4 5 6 7 7 7 7 7 8 8 9 9 8 8 7 7 7 7 7 8 9 10 10 9 9 9 10 10 11 11 11 11 10 9 9 10 10 11 12 11 11 11 11 12 13 14 15 15
9 9 10 11 12 12 13 13 12 13 12 12 12 12 12 10 10 10 9 8 8 7 7 6 6 6 6 5 4 3 2 2 2 2 2 3 3 4 5 6 7 7 7 7 7 8 8 9 9 8 8 7 8 8 7 7 9 10 10 10 10 10 9 10 10 11 11 11 10 9 9 9 10 11 12 12 11 10 11 12 13 14 14 14 14
8 8 9 11 11 12 12 12 11 11 11 10 10 9 10 10 10 10 9 8 7 7 6 6 6 5 5 4 4 3 3 3 3 3 3 2 3 4 5 6 7 8 7 7 7 7 8 9 9 8 8 7 7 7 7 8 9 10 10 10 11 10 10 10 10 10 10 10 9 8 8 9 10 11 11 11 10 10 11 12 13 13 14 14 14
8 8 9 10 10 11 11 11 11 11 11 10 10 9 9 9 10 10 9 8 7 7 6 6 5 5 4 4 4 4 4 4 4 3 3 3 3 4 5 6 7 8 8 8 8 8 8 8 8 8 8 7 7 7 7 8 9 10 11 11 11 11 11 10 10 10 9 9 8 8 8 9 10 11 11 10 10 11 12 13 13 13 14 15 15
7 7 8 9 9 10 10 11 10 10 10 10 10 9 8 8 8 8 7 7 6 6 6 6 5 4 4 5 5 6 6 6 5 4 3 4 4 5 6 7 7 8 9 8 8 8 8 8 8 8 8 7 7 8 8 8 9 10 11 12 11 11 11 11 11 10 9 9 8 8 8 9 10 11 10 10 11 12 13 13 13 14 15 15 15
7 7 8 9 9 10 11 11 11 10 10 10 9 8 8 7 7 6 6 5 5 5 5 5 5 5 6 7 7 7 7 7 6 5 4 4 5 5 6 7 7 8 9 9 8 8 8 8 7 8 8 7 8 9 9 8 8 10 12 12 12 11 11 11 11 10 10 9 8 7 8 9 11 11 10 11 12 12 13 13 14 15 15 15 15
8 8 9 10 11 11 11 11 11 11 10 10 9 9 8 8 7 7 6 5 5 5 5 5 6 6 7 8 8 7 7 7 6 6 5 5 5 5 6 6 7 8 8 9 8 7 7 7 7 7 7 7 8 9 10 9 8 10 13 13 12 12 12 12 11 11 10 9 8 7 9 10 11 10 11 12 12 12 13 14 15 15 15 14 14
10 10 10 11 11 11 11 11 11 11 10 9 9 8 8 8 8 8 7 6 6 6 6 6 6 6 6 7 7 7 7 6 6 6 6 5 5 5 6 7 7 8 8 8 8 7 7 7 7 7 7 7 9 10 11 10 9 10 13 13 13 12 12 12 11 11 10 9 8 8 9 11 11 11 12 12 12 13 14 15 15 15 14 13 12
11 10 10 10 10 9 10 10 10 9 9 8 7 7 7 7 7 7 7 7 7 7 6 6 6 5 5 5 6 6 7 6 6 6 6 6 6 6 6 7 8 8 8 8 7 7 6 7 7 7 7 7 8 10 11 10 9 11 12 12 13 12 12 12 12 11 10 9 8 9 10 11 11 12 12 12 13 13 14 14 14 14 14 13 12
9 9 8 8 8 7 8 8 8 8 7 7 6 5 5 6 7 6 6 6 6 6 6 5 5 5 5 5 5 6 7 7 6 6 6 6 7 7 7 8 9 9 8 7 7 7 7 7 7 7 7 7 8 10 10 10 10 11 11 11 12 12 12 12 12 11 10 9 9 10 11 11 12 12 12 12 13 13 13 13 13 13 13 12 11
8 7 7 6 6 6 6 6 7 7 6 6 5 4 5 6 7 5 6 5 5 5 5 4 5 5 5 5 5 5 6 8 8 8 8 7 7 8 8 8 9 9 9 8 7 7 8 8 7 7 7 8 8 10 10 10 10 10 11 11 11 12 12 12 11 11 10 10 10 11 11 12 12 12 12 13 13 13 12 12 12 12 12 11 11
7 6 6 6 6 6 6 5 6 6 6 6 5 4 5 6 7 4 4 4 4 3 4 5 5 5 4 4 4 4 6 8 9 9 9 8 8 9 9 9 10 10 9 8 8 8 8 8 8 8 7 8 9 10 11 11 10 10 11 11 11 12 12 11 11 11 10 10 11 12 12 12 12 12 13 14 14 13 12 11 11 11 11 11 12
6 6 6 6 6 6 6 6 6 6 6 5 5 4 5 6 7 4 4 3 3 3 3 4 4 4 5 4 5 5 7 8 9 9 9 8 8 9 9 9 10 10 9 9 9 9 9 9 9 8 8 8 9 10 11 11 10 10 10 10 11 11 11 11 11 11 11 11 12 12 12 12 12 13 14 14 14 13 11 10 10 10 11 12 13
6 6 6 6 7 7 7 7 7 7 6 6 4 4 4 4 6 4 3 3 3 3 3 3 4 5 5 6 5 5 7 8 9 9 9 9 9 10 10 9 10 10 9 9 10 10 10 10 9 8 9 9 10 11 11 11 10 10 10 10 10 10 11 11 11 11 11 12 13 13 13 13 13 14 14 14 13 12 11 10 10 11 13 14 15
6 6 7 7 8 8 8 8 7 7 5 5 4 4 2 5 5 4 4 3 3 3 3 3 4 4 5 6 5 5 6 8 9 10 10 10 10 10 11 10 10 10 10 9 10 10 11 10 9 8 9 10 11 12 12 11 10 10 10 10 10 10 10 11 11 12 12 13 13 13 13 13 13 14 14 13 12 11 10 11 12 14 15 16 16
7 8 8 8 8 8 8 7 6 6 4 2 3 2 2 4 3 3 4 4 4 4 4 4 4 5 5 5 6 7 7 9 9 10 10 11 11 11 12 11 11 11 10 9 10 11 11 10 9 8 9 11 11 12 12 11 10 10 10 10 10 10 10 11 12 12 13 14 14 13 13 13 13 14 14 13 12 11 11 12 14 16 16 17 17
9 9 9 8 8 7 6 6 5 4 2 1 1 1 3 3 1 2 2 4 4 4 4 5 5 5 5 5 6 7 8 9 9 10 10 11 12 12 13 12 12 11 10 9 10 11 10 9 8 8 9 11 12 13 13 11 11 10 10 10 10 10 11 12 12 13 13 14 14 13 13 13 13 14 14 12 12 12 12 14 15 16 17 17 17
9 8 9 8 8 7 7 6 5 4 2 1 2 2 4 3 1 1 1 2 3 3 4 5 5 5 5 6 6 7 8 8 9 9 10 11 13 14 14 13 13 12 11 10 11 11 10 9 8 8 9 11 12 13 13 12 11 11 11 11 10 10 11 12 13 13 13 14 14 13 13 13 13 14 14 13 12 13 13 14 16 17 17 17 18
8 8 8 8 8 8 7 6 5 4 2 1 2 3 5 3 2 2 0 1 1 2 3 4 5 4 5 7 7 7 7 8 9 10 10 11 13 15 15 15 14 13 12 12 12 11 10 9 8 8 9 11 13 14 13 12 12 12 12 11 10 11 12 13 13 13 13 14 13 13 13 13 14 14 14 13 13 13 13 15 15 16 17 17 18
8 8 7 8 8 8 7 6 6 4 2 0 2 3 4 2 2 1 1 3 3 4 4 4 5 5 5 6 7 7 7 8 9 10 11 12 13 15 15 16 15 14 13 13 13 11 10 10 9 9 10 11 12 14 14 13 13 12 12 11 10 11 13 13 13 13 14 14 13 13 12 13 14 14 13 13 13 13 13 14 15 16 17 17 17
8 8 8 7 8 8 7 7 6 4 2 1 2 3 3 3 2 2 4 5 5 6 6 6 7 7 7 8 9 9 9 9 9 10 11 12 14 15 16 18 17 15 14 14 12 11 11 10 10 11 11 12 12 13 14 14 13 12 11 10 10 12 13 14 14 13 13 13 13 13 13 13 14 14 13 13 13 12 12 14 14 15 16 16 16
7 8 7 7 7 8 8 7 6 4 3 2 2 3 3 5 5 4 6 6 6 8 8 8 9 9 9 10 11 11 11 10 10 10 12 13 14 15 17 19 18 16 15 14 12 11 11 11 11 12 12 13 13 13 14 14 14 12 11 9 10 13 14 14 14 13 13 13 13 13 13 14 14 13 13 13 12 11 12 13 14 14 15 15 15
7 7 7 8 8 8 8 8 6 5 4 3 2 3 3 7 7 6 7 8 8 9 9 10 10 11 11 12 12 12 11 11 11 11 11 13 14 16 18 19 18 16 15 14 12 11 11 11 11 12 13 13 14 14 14 14 13 12 10 9 11 14 14 14 14 13 13 12 12 13 13 14 13 13 12 12 11 11 11 12 13 13 13 14 14
8 7 8 8 8 8 9 9 7 6 5 4 4 4 3 7 10 9 8 9 9 10 11 12 12 12 13 13 13 13 13 13 13 12 12 13 15 17 18 18 17 16 14 13 12 12 11 11 12 13 13 14 13 13 13 13 12 11 9 10 13 14 14 14 13 13 13 12 12 13 13 13 13 12 12 11 10 10 11 11 11 12 12 13 13
8 8 9 9 8 8 9 9 8 7 6 6 6 5 5 7 11 12 10 9 10 11 13 14 14 14 14 14 15 15 15 15 16 16 15 16 17 18 18 18 17 15 14 13 12 12 11 11 13 13 13 14 13 13 13 12 11 9 8 11 14 14 14 13 12 12 12 11 11 12 13 13 12 12 11 10 10 9 10 10 10 10 11 12 12
9 9 9 9 8 8 9 10 9 8 7 7 7 7 6 6 9 12 12 11 11 12 14 15 16 16 16 16 16 16 17 17 17 17 17 18 18 18 18 18 17 15 14 13 12 12 12 13 14 14 14 14 13 13 12 10 9 7 9 12 14 14 13 12 11 11 11 11 11 11 12 12 12 11 10 9 9 8 8 9 9 9 10 11 11
9 9 8 8 8 8 9 10 9 8 8 8 8 8 7 6 8 11 12 12 12 13 14 15 16 16 16 16 16 16 17 17 18 18 18 19 19 19 18 17 16 15 14 13 13 13 13 14 16 16 15 14 13 12 11 9 8 7 10 13 14 13 12 11 11 10 10 10 10 11 11 12 11 10 9 9 8 7 7 8 8 8 9 10 11
9 8 8 8 8 9 9 10 10 9 9 9 9 9 8 7 8 10 12 13 13 14 14 15 15 15 15 15 15 16 16 17 18 18 19 19 19 19 18 18 17 15 14 14 14 15 15 16 17 16 15 14 13 12 11 10 8 9 11 13 13 11 10 10 10 9 9 9 9 10 10 11 10 9 8 8 7 6 6 7 7 8 9 10 11
9 8 8 8 8 9 9 10 10 10 9 10 10 10 10 9 9 10 11 12 13 14 14 14 14 14 14 14 15 15 16 17 17 18 19 19 19 19 18 18 17 16 15 15 16 17 16 16 16 15 14 13 13 12 11 10 10 11 12 13 12 10 9 9 8 8 8 8 8 9 10 9 9 8 7 7 6 6 6 7 8 9 10 11 12
9 8 8 8 8 9 9 10 10 10 10 10 11 11 10 10 9 10 10 11 12 13 13 13 13 13 14 14 15 15 15 16 17 18 19 19 19 18 17 17 16 16 16 17 18 18 17 16 15 14 13 14 13 12 12 11 11 12 13 12 11 10 8 7 7 7 7 7 7 8 8 8 8 7 6 6 6 6 6 7 9 10 11 12 12
9 8 8 8 8 8 9 9 10 10 10 11 11 11 11 10 10 10 11 11 12 13 13 13 14 14 14 15 15 15 16 16 17 17 17 18 17 17 16 15 16 17 18 19 20 19 18 16 15 14 14 14 13 13 12 11 12 13 13 12 10 9 7 7 6 6 6 6 6 7 7 7 6 6 5 5 5 6 6 7 9 10 11 11 11
10 8 8 8 8 8 9 9 9 9 10 11 11 11 10 10 10 11 11 11 12 12 13 13 14 15 15 15 15 16 17 17 17 17 17 17 16 16 15 15 17 18 20 20 20 19 17 15 14 14 14 14 13 13 12 11 11 12 12 11 10 8 7 6 6 5 5 5 5 5 6 6 5 5 5 6 6 6 7 7 8 9 10 10 11
9 9 8 8 9 9 9 8 8 9 10 11 11 11 10 9 9 11 12 12 12 12 13 13 14 15 15 15 16 17 18 18 17 17 17 16 15 15 16 17 19 20 20 20 19 18 17 15 14 15 15 14 14 13 13 12 11 11 10 9 9 8 7 6 5 5 5 4 4 4 4 4 5 5 6 6 6 6 7 7 8 9 9 10 10
9 10 8 8 9 9 9 8 8 8 9 10 11 11 11 10 9 11 12 13 13 13 13 14 14 14 15 15 15 16 17 18 17 17 17 16 16 16 18 19 20 20 20 18 17 17 17 15 13 14 14 14 14 14 13 12 11 10 9 8 7 7 6 5 5 5 5 4 4 3 3 4 4 5 5 6 6 7 7 8 8 9 9 9 10
8 10 9 9 9 9 10 9 8 8 8 9 10 11 11 11 10 11 13 14 14 15 14 14 14 14 14 14 15 16 17 17 18 18 18 18 18 18 20 20 21 20 19 17 16 16 15 13 12 13 14 14 15 14 13 13 12 10 9 7 6 6 5 5 5 5 5 4 3 3 3 4 4 5 5 6 7 7 8 8 8 9 9 9 9
9 10 10 9 10 10 10 9 8 8 8 9 10 10 11 11 12 12 14 15 15 16 16 15 15 15 16 15 15 16 17 18 18 19 19 20 20 21 21 21 20 19 18 17 16 15 13 12 12 13 14 15 15 14 13 13 12 11 10 8 6 6 6 5 5 5 4 4 4 4 4 4 4 5 5 6 6 7 7 7 8 8 8 9 9
9 10 10 9 10 10 10 10 9 9 8 9 9 10 11 12 13 14 15 16 16 17 17 16 16 16 17 17 17 17 18 19 20 21 21 22 22 22 22 21 19 18 17 16 15 14 12 11 12 13 14 14 14 14 13 13 13 12 11 9 8 7 7 6 5 5 4 5 5 5 5 5 5 5 5 6 6 7 7 7 7 8 8 8 9
10 10 10 10 10 10 10 10 10 9 9 9 9 10 10 11 13 15 16 17 17 17 17 17 16 16 17 18 18 18 18 19 20 21 22 22 23 22 21 20 18 17 16 15 14 13 12 12 13 13 13 13 13 13 13 13 13 12 11 10 8 7 7 7 6 5 4 5 5 6 6 5 5 5 5 5 6 7 7 7 7 7 8 8 8
10 11 11 11 10 10 11 11 10 10 10 10 10 10 10 11 13 15 16 17 18 17 17 17 16 16 16 17 18 18 18 18 19 19 20 21 21 20 20 19 18 16 14 14 13 12 12 12 13 12 12 12 12 12 13 13 13 12 11 10 8 7 7 7 6 5 5 5 6 6 6 5 5 4 4 5 5 6 7 8 8 7 7 8 8
9 10 11 11 10 10 11 12 10 10 10 10 10 10 11 11 13 14 16 17 17 17 16 16 16 16 16 16 17 17 17 17 17 17 18 18 18 18 18 17 17 15 14 13 13 12 11 12 12 11 11 11 11 11 12 13 13 12 11 10 8 7 7 6 6 5 5 5 5 5 4 4 3 3 3 3 4 5 7 7 8 8 8 8 9
9 10 10 11 11 10 11 12 12 10 10 11 11 11 12 12 12 14 15 16 16 16 16 16 15 15 15 15 15 15 16 16 16 16 16 16 16 16 16 16 15 15 14 13 12 12 11 10 10 10 9 10 11 11 11 12 12 13 12 10 8 7 7 7 6 5 5 5 4 3 3 2 2 2 2 3 4 5 6 7 9 10 10 10 10
10 11 10 10 11 11 11 11 12 12 11 11 11 12 12 12 13 13 14 15 15 15 15 15 15 14 14 15 15 14 14 14 15 15 15 14 14 14 14 14 14 14 13 12 11 11 10 9 9 8 8 9 10 10 10 10 11 12 13 11 9 8 7 7 6 5 5 5 4 2 1 1 1 2 2 3 4 6 7 8 9 10 11 11 10
10 10 11 10 11 12 11 11 12 12 12 11 11 11 12 12 12 13 13 14 14 14 14 15 15 14 14 14 14 14 13 13 13 13 13 12 12 12 12 12 12 12 11 11 10 10 9 8 8 7 7 8 9 10 10 9 8 10 12 12 10 9 8 7 6 5 5 5 4 3 1 1 2 2 2 3 4 5 6 7 9 10 10 10 10
10 10 11 11 11 12 12 12 12 12 12 12 12 11 11 11 11 11 12 13 13 13 13 13 14 14 14 13 13 12 12 12 12 12 12 11 11 11 10 10 10 10 10 9 9 8 8 8 7 7 7 7 8 9 9 9 8 8 10 11 10 9 9 9 8 7 6 5 4 4 3 2 0 1 2 3 4 5 7 8 9 9 10 10 11
12 10 11 12 13 13 13 12 12 12 12 13 12 12 11 11 11 11 11 11 12 12 12 13 13 13 13 13 12 12 11 11 11 11 11 10 10 10 9 9 9 9 8 8 8 7 7 7 7 7 7 7 8 8 8 8 7 6 7 8 8 8 8 9 8 7 6 5 4 4 3 3 3 3 3 4 5 7 8 9 9 9 9 9 9
13 12 12 13 14 14 14 13 13 13 13 13 13 13 12 12 12 11 10 10 11 11 11 11 12 12 12 11 11 11 11 11 11 11 10 10 9 9 8 8 8 8 7 7 7 6 6 7 7 7 6 6 7 7 8 8 8 6 6 6 6 6 6 6 7 7 6 6 5 4 3 3 4 4 4 5 6 7 8 9 9 9 9 8 7
15 14 13 13 13 14 15 14 14 13 13 13 13 13 13 13 13 12 11 10 10 10 10 10 10 10 10 10 10 11 10 10 10 10 10 9 9 8 8 7 7 7 6 6 6 6 5 5 6 5 5 6 6 7 8 8 8 7 6 6 6 6 6 5 5 5 5 4 3 3 3 4 5 6 6 6 6 7 8 9 9 9 8 7 8
16 15 14 14 14 14 15 15 15 15 14 13 14 14 14 14 13 13 13 12 11 11 11 10 10 9 10 10 9 9 9 9 9 9 9 9 8 8 7 7 6 6 6 5 6 6 6 5 5 5 5 5 6 7 7 8 8 7 7 6 6 6 5 5 4 4 3 3 3 3 4 6 7 7 7 6 7 7 9 9 9 9 9 9 9
15 15 15 15 15 15 15 15 16 16 15 14 14 14 14 13 13 12 12 13 12 11 11 11 10 10 10 10 9 9 9 9 9 9 9 9 8 8 8 7 6 6 6 6 6 6 6 6 6 6 6 5 6 6 7 8 8 8 6 5 5 5 5 4 4 4 3 4 4 5 5 7 8 8 8 8 7 7 8 8 8 9 10 10 9
Wind_Direction
110 110 110 111 113 116 123 128 128 129 132 130 127 126 125 124 138 134 120 128 130 133 139 136 136 130 128 124 124 124 121 111 96 97 103 121 128 130 125 123 129 142 144 139 134 125 116 108 107 105 99 94 92 91 87 89 94 95 97 99 100 102 99 94 95 103 106 105 102 90 79 70 65 59 52 44 40 43 51 53 56 65 80 90 91
117 115 114 114 117 120 123 128 129 129 132 131 125 124 125 130 133 122 117 129 132 136 142 143 143 138 137 135 139 137 128 116 106 107 112 128 138 141 136 136 140 148 143 136 131 123 119 117 116 114 108 101 94 88 85 89 98 103 103 103 100 95 89 87 93 99 101 100 93 82 71 63 58 53 46 38 36 43 47 51 63 79 90 92 89
122 122 121 120 122 123 126 130 130 131 136 138 136 134 134 136 127 118 124 132 136 142 149 154 153 152 150 148 146 135 122 103 107 123 125 135 145 150 145 144 142 143 137 132 130 127 127 123 122 121 114 106 99 93 94 102 110 113 109 105 98 88 82 83 89 92 93 91 84 75 64 56 51 46 39 34 36 42 45 57 75 88 91 87 85
122 125 124 123 123 125 126 127 128 129 134 138 140 138 137 140 134 130 135 139 144 150 157 162 163 166 160 156 153 142 128 113 130 144 136 138 155 159 150 146 141 141 139 138 136 134 133 127 126 123 115 110 106 104 110 118 121 119 113 106 97 89 82 81 84 88 89 87 82 70 59 51 45 40 34 33 39 43 52 70 85 89 85 81 81
123 123 122 122 123 125 124 124 126 126 129 135 136 134 138 141 138 139 144 148 154 158 165 169 173 175 171 166 163 157 138 135 145 145 138 145 167 160 148 145 143 146 147 144 142 138 134 128 127 123 113 108 107 110 119 125 128 123 115 107 99 93 90 90 92 92 90 86 79 66 55 48 42 36 32 36 45 54 70 83 89 87 80 76 78
122 121 120 121 123 122 121 124 126 128 132 137 137 140 144 142 140 142 147 152 159 166 171 174 179 179 173 163 152 143 135 139 142 141 146 152 168 156 145 148 151 153 149 145 142 138 134 130 130 124 113 108 109 113 122 130 131 124 116 108 101 97 97 98 100 100 97 89 77 65 54 46 38 31 32 42 55 69 82 87 87 82 76 74 77
112 115 117 118 119 119 121 124 125 127 131 135 139 143 143 139 138 139 142 149 158 167 174 175 176 172 156 143 138 137 134 134 139 148 156 158 162 155 147 151 158 155 148 145 143 142 138 131 129 124 116 114 114 116 125 132 130 122 113 104 100 97 97 99 102 103 99 89 78 66 54 45 36 30 36 52 67 77 83 86 84 78 74 75 79
104 108 113 115 117 118 119 121 121 122 123 126 131 135 134 133 134 134 137 145 157 164 167 163 159 153 143 138 139 140 135 136 148 157 160 164 160 151 147 152 158 153 146 143 143 145 135 124 124 123 118 119 119 121 129 133 129 120 109 101 97 94 95 98 102 102 97 88 78 66 53 43 35 34 46 63 72 79 84 86 81 75 74 77 81
106 109 112 114 115 117 118 120 121 121 120 121 124 126 129 130 129 130 134 140 151 153 149 147 148 148 145 144 144 142 140 145 154 156 158 161 154 145 145 150 153 151 145 141 142 141 127 120 125 124 121 122 123 127 132 135 131 117 106 100 97 95 96 98 101 100 95 89 79 64 52 42 38 46 60 69 75 80 85 85 78 73 73 76 80
106 109 110 111 114 116 119 121 122 121 119 119 120 122 125 125 124 128 134 142 147 145 145 147 150 151 150 149 147 144 144 151 154 151 153 151 149 146 146 149 149 150 146 143 143 136 126 124 128 128 125 125 126 131 135 137 131 114 105 100 98 97 98 99 100 99 95 89 77 62 50 44 48 60 68 72 76 81 85 82 76 72 70 72 76
107 111 112 115 118 121 124 125 124 122 121 121 121 122 125 123 124 132 141 152 156 153 155 156 153 152 157 157 151 149 149 154 156 151 150 149 150 150 150 151 150 150 146 142 138 130 126 128 132 134 130 124 127 133 135 135 126 111 106 103 100 99 99 100 100 98 96 88 74 60 50 52 62 69 71 73 78 82 84 80 75 69 66 66 70
106 112 114 119 120 122 122 122 121 120 121 120 122 128 136 137 134 144 159 166 170 168 164 164 166 166 177 180 167 164 157 155 162 159 154 154 153 154 155 154 151 147 142 135 129 126 129 134 139 138 130 128 132 134 133 132 126 116 110 106 104 103 101 101 101 100 95 85 72 60 57 66 73 73 72 76 79 83 83 79 73 66 62 62 67
99 106 110 113 114 114 111 111 111 113 117 118 128 140 150 146 134 154 178 175 181 176 166 178 192 188 192 200 189 186 175 163 170 169 161 161 158 158 159 158 153 146 140 134 132 133 137 143 144 141 133 131 133 132 130 129 128 121 113 110 109 106 104 103 103 100 92 81 70 64 69 77 78 75 76 79 81 83 82 77 71 64 60 61 68
97 100 105 107 109 107 104 105 107 112 116 124 139 149 162 145 124 153 187 171 181 174 166 185 197 192 187 204 204 206 200 176 173 175 168 168 164 162 164 162 154 145 141 140 140 142 145 148 148 145 135 130 132 130 126 123 124 121 116 115 113 110 107 105 103 97 89 78 71 73 80 82 79 78 80 81 82 81 79 75 68 62 61 65 70
101 103 103 103 103 103 105 107 111 115 118 129 145 160 184 155 126 165 193 158 173 165 162 181 182 167 158 175 182 189 199 184 176 180 177 176 170 164 167 162 153 145 143 146 145 147 150 151 152 146 135 132 133 129 124 121 122 121 119 118 115 112 109 106 101 94 86 78 77 82 86 84 82 82 82 82 82 80 77 74 68 66 68 72 73
98 102 106 104 102 103 107 110 112 115 120 127 149 196 206 135 124 175 188 153 167 159 163 179 173 158 156 165 162 171 185 179 179 184 182 180 173 165 166 162 154 148 146 151 149 149 153 153 154 146 135 134 134 129 123 122 123 122 121 119 116 113 110 105 98 90 83 80 84 88 88 86 85 84 83 81 80 78 76 74 73 74 75 74 73
98 103 107 107 102 101 102 105 107 107 115 127 159 208 175 105 126 176 174 153 159 162 169 173 170 169 176 172 159 171 175 167 174 181 180 177 171 166 167 164 157 149 149 154 150 151 155 155 154 146 136 136 136 131 125 125 125 124 122 119 116 113 109 103 95 87 83 86 90 92 91 88 87 85 82 79 78 77 78 80 80 79 76 74 72
106 105 104 103 99 97 99 100 100 102 112 144 179 192 80 93 137 185 168 148 157 170 170 165 176 189 197 183 168 177 172 162 167 172 177 177 173 169 169 166 158 151 153 155 151 153 156 155 153 144 135 136 137 132 126 127 127 125 123 119 116 113 108 99 91 86 87 91 94 95 94 90 87 84 81 79 80 81 83 85 83 80 76 73 70
107 105 102 100 98 98 97 96 96 102 117 211 238 61 61 73 128 199 167 146 175 182 164 168 190 203 201 184 172 175 169 162 164 168 174 179 178 174 171 168 160 155 156 155 152 154 156 154 148 141 136 135 137 133 128 129 129 127 122 118 116 113 104 94 88 88 92 96 99 99 95 91 87 84 83 83 84 86 87 85 83 79 75 71 66
108 104 103 102 101 100 98 97 97 99 112 258 282 50 64 56 33 249 187 163 199 179 157 178 196 202 193 177 171 173 169 162 164 167 169 176 178 176 174 168 161 156 155 154 152 153 155 149 142 139 137 136 137 133 130 131 129 124 120 118 115 108 97 90 89 92 98 101 102 100 95 91 88 87 87 88 89 89 87 84 80 77 72 66 62
111 105 107 107 104 101 99 99 99 100 105 274 300 42 64 46 321 290 201 152 180 149 157 185 185 183 181 169 163 166 166 162 164 165 166 171 176 177 173 165 158 155 155 155 153 153 153 145 139 137 136 137 137 133 130 130 126 122 119 116 112 102 92 89 92 98 103 106 105 100 95 92 91 92 93 93 91 89 86 82 77 72 68 63 58
116 110 106 104 103 103 102 101 98 99 102 341 315 28 64 52 329 315 80 101 115 129 148 158 148 148 157 150 143 147 152 156 161 163 164 168 173 173 169 159 153 154 156 155 153 153 151 143 139 137 137 138 136 133 131 129 124 122 117 112 107 97 91 93 98 105 109 109 106 100 96 96 96 96 96 94 91 88 83 79 74 68 64 60 56
118 111 102 98 101 104 103 100 98 96 90 39 323 0 57 72 51 51 71 87 110 123 132 133 128 131 138 135 131 135 138 141 149 155 157 162 168 168 164 155 150 154 156 153 152 151 146 140 139 137 136 136 134 133 132 128 124 119 113 110 103 95 95 100 106 111 113 112 108 102 100 100 98 97 96 94 91 86 81 76 70 65 60 57 54
119 112 102 99 103 104 101 97 94 92 83 59 349 351 44 76 76 71 77 87 103 113 118 119 121 125 128 129 130 132 132 133 138 145 150 157 164 163 158 150 148 154 154 151 151 147 139 137 138 137 136 134 134 135 132 127 122 116 111 108 101 97 101 107 112 116 116 114 108 104 103 102 100 98 96 93 89 84 78 72 66 61 57 54 52
122 116 105 101 103 101 100 98 94 91 84 70 35 10 50 82 85 75 75 86 97 105 108 109 115 119 121 123 126 128 130 131 133 138 145 151 153 151 148 146 148 151 149 148 148 140 134 136 138 136 135 133 134 134 130 124 118 112 109 106 101 102 107 112 117 121 120 115 109 106 105 104 102 99 96 92 87 81 74 68 62 58 53 50 48
123 117 107 102 101 99 98 98 95 92 85 73 56 41 58 86 93 87 79 87 96 102 105 107 111 114 116 118 120 123 124 125 127 129 132 134 136 140 141 143 145 145 145 146 141 133 131 134 134 132 130 130 131 129 123 117 111 109 109 108 105 107 112 116 122 126 122 117 111 108 107 105 102 98 94 90 84 77 70 64 58 53 48 45 42
119 113 106 102 98 95 95 96 94 90 84 75 65 58 56 74 91 96 93 94 98 103 106 108 111 114 116 117 120 121 121 122 123 124 124 126 131 135 137 138 139 139 142 141 134 128 130 132 130 128 127 128 128 122 115 108 104 106 111 110 109 112 116 121 127 129 124 118 114 111 109 105 101 96 92 88 81 74 67 61 54 48 44 40 36
116 111 105 101 97 95 95 94 92 89 84 79 75 71 64 65 86 99 101 99 100 104 106 108 112 114 115 117 120 121 122 123 124 125 126 129 132 133 134 134 135 138 139 135 129 126 128 131 129 128 128 126 122 113 105 99 97 103 110 111 111 114 118 125 132 132 126 121 117 112 109 105 100 96 93 87 80 72 63 57 49 42 38 34 31
117 114 108 102 98 97 95 94 92 89 86 84 82 79 73 69 82 96 100 99 101 105 105 107 110 112 115 117 119 120 121 124 127 128 129 131 132 132 132 132 135 138 135 131 126 125 129 131 129 128 127 123 115 106 98 92 91 101 109 110 110 114 121 129 136 135 129 124 119 112 108 104 101 97 93 87 79 71 62 53 44 36 32 28 25
116 112 108 103 97 95 94 94 92 89 86 84 84 83 82 80 84 90 96 99 102 107 107 108 110 112 115 118 118 118 120 124 128 130 130 132 133 132 133 134 136 136 133 129 125 124 129 131 129 127 124 117 108 100 96 94 98 105 109 109 110 115 124 133 139 137 132 127 120 112 106 103 100 96 92 86 79 70 60 49 38 31 27 23 21
115 111 105 98 94 93 92 92 91 89 87 86 86 86 87 87 88 90 94 98 103 108 110 111 113 115 117 118 119 121 123 125 128 130 131 132 133 133 134 136 136 134 129 125 125 125 129 131 127 123 117 108 101 97 96 100 107 111 110 109 111 118 127 136 141 139 134 129 121 111 104 99 96 94 91 85 77 66 55 44 33 27 24 21 19
114 111 104 96 93 93 92 90 90 90 89 88 89 90 92 92 92 94 96 98 102 107 110 112 114 118 120 120 122 125 127 128 129 132 133 134 134 135 135 135 132 129 126 126 127 127 129 129 123 116 108 100 97 96 98 104 111 112 110 110 114 121 130 138 142 138 133 128 120 109 101 95 91 90 85 80 72 59 49 40 31 25 23 20 19
113 113 109 103 99 98 96 92 90 90 91 92 92 94 95 96 97 99 100 100 101 104 108 111 114 118 122 122 123 126 129 131 132 134 135 136 137 136 134 132 129 128 129 130 130 129 130 125 116 108 101 97 95 95 99 106 111 111 111 113 117 124 131 139 139 133 128 124 117 105 96 90 85 81 74 67 60 52 43 36 30 24 21 20 18
116 117 116 112 108 105 100 96 93 92 95 96 97 98 98 100 101 103 103 102 102 104 107 111 115 118 122 123 125 127 129 132 133 134 136 137 137 134 131 130 130 131 131 131 131 129 125 117 109 104 98 95 95 96 101 105 107 107 111 116 119 125 132 137 135 128 123 118 109 99 90 82 74 64 55 49 45 40 36 30 25 21 19 17 17
118 118 119 119 117 114 108 102 99 96 98 101 102 103 103 102 101 102 103 103 103 104 106 110 114 117 120 123 125 127 128 131 132 134 135 136 135 132 131 131 131 131 130 130 129 123 117 112 108 104 100 98 97 97 99 101 99 100 107 115 120 125 130 131 129 125 119 111 103 96 88 78 65 51 41 35 32 30 28 25 22 20 18 15 15
121 119 119 124 125 123 117 112 107 102 101 103 105 108 109 107 102 100 101 103 103 103 105 107 111 114 117 120 124 127 128 130 132 133 134 134 134 132 131 132 130 129 128 128 124 118 114 113 109 105 103 102 101 99 99 98 97 98 102 109 116 119 120 120 119 119 113 105 102 99 89 72 56 43 35 30 26 24 23 24 23 22 18 14 15
129 124 123 128 131 129 125 122 118 112 107 107 110 112 113 112 106 101 100 103 104 105 105 106 108 110 112 115 120 125 128 130 131 132 132 132 132 131 130 130 129 127 127 125 119 114 113 112 107 103 101 100 99 98 99 101 102 103 102 101 104 105 102 99 98 99 97 95 96 87 73 57 46 37 31 29 28 25 23 24 24 24 19 15 17
136 131 129 132 136 136 133 131 127 120 114 112 114 117 118 118 114 109 106 107 108 109 110 109 111 112 112 114 117 121 125 127 129 130 130 130 130 130 130 129 128 128 127 123 117 112 112 112 106 100 98 96 96 98 100 104 107 107 105 99 94 94 92 85 79 77 81 88 86 71 60 51 45 37 31 30 31 29 25 23 25 25 21 17 19
142 135 134 136 139 141 140 136 131 125 119 115 117 120 122 123 120 117 115 113 113 114 114 114 115 116 116 117 118 120 122 124 126 128 129 129 130 130 130 129 128 128 125 120 118 116 115 113 105 99 96 96 99 102 105 107 109 109 109 108 105 104 100 92 82 73 73 79 81 76 67 57 46 40 36 33 32 30 25 21 22 23 21 17 18
148 140 138 139 140 144 145 140 134 128 122 118 118 122 125 127 124 122 121 120 119 118 118 119 119 120 120 120 122 122 123 124 126 128 129 130 130 130 129 129 128 127 124 123 122 121 120 114 104 97 95 98 102 107 110 110 109 109 109 111 112 114 111 104 97 89 83 78 79 83 81 73 60 46 38 34 31 26 19 15 16 20 21 15 15
156 146 142 142 144 148 147 144 139 132 126 120 119 122 127 129 126 124 124 124 123 122 122 122 123 123 123 123 125 126 126 127 128 128 129 130 130 130 130 129 129 129 128 126 125 123 121 112 103 98 98 102 107 110 112 111 110 110 109 108 111 114 112 109 107 101 97 91 86 86 88 87 80 65 49 39 31 23 15 9 8 15 18 11 12
163 152 146 144 148 152 150 146 144 137 129 124 122 125 128 130 129 127 127 126 125 124 124 125 125 125 124 125 125 127 128 128 129 130 130 130 130 131 131 131 132 132 131 128 127 125 119 111 105 103 104 107 109 110 111 111 112 112 109 109 112 111 109 107 106 104 105 105 100 96 97 94 86 74 60 48 35 23 15 4 0 8 13 12 14
170 160 152 150 152 155 154 150 148 145 138 132 130 130 130 131 132 131 130 129 128 128 128 127 127 127 126 125 125 127 128 129 131 132 133 133 133 134 134 134 134 133 133 132 131 126 119 113 109 109 110 111 112 111 112 114 116 115 112 112 113 111 109 107 106 113 116 114 112 110 109 107 88 61 45 38 27 18 11 2 358 3 11 15 16
176 166 158 158 158 157 155 153 152 151 148 143 139 137 134 135 136 135 134 133 133 134 133 132 130 130 129 128 127 128 129 131 132 133 134 135 134 135 136 136 135 135 135 134 131 127 122 117 114 114 117 117 117 116 116 121 124 123 123 124 124 120 117 115 115 120 122 123 130 131 99 65 53 34 23 19 12 4 2 1 359 2 10 14 15
181 172 163 164 166 162 159 158 157 156 157 155 151 145 141 140 140 139 139 138 139 139 139 137 136 135 134 132 132 131 132 132 132 132 134 135 135 136 137 136 137 136 135 133 130 129 127 125 123 122 125 125 124 123 126 133 137 134 132 131 131 129 129 130 131 135 138 143 153 156 138 45 28 10 0 356 349 346 352 360 0 3 7 10 14
188 182 171 170 172 167 164 164 162 161 163 163 162 158 150 149 147 145 144 143 143 145 144 143 141 141 140 140 139 138 138 137 134 135 136 138 138 138 138 139 140 139 137 137 136 136 135 135 136 138 139 136 132 133 139 146 151 145 135 133 137 140 142 144 147 153 160 164 165 161 161 166 203 302 309 307 317 335 353 -0 359 -0 3 7 13
191 191 183 179 177 171 168 170 168 164 167 168 169 169 164 162 160 155 152 150 150 152 152 150 148 148 147 147 146 145 145 143 140 141 141 141 143 143 144 146 147 146 146 146 145 146 146 147 151 154 153 150 145 147 152 154 155 150 137 136 145 152 154 153 156 164 169 173 178 174 178 195 216 237 265 294 323 344 355 355 354 357 2 6 9
191 194 195 191 183 174 171 174 173 169 170 170 172 176 176 174 170 164 162 162 161 160 159 157 155 155 154 153 152 150 150 149 147 147 147 147 148 149 149 152 155 155 154 153 152 152 154 155 159 163 164 162 161 162 164 162 158 154 149 150 159 168 172 167 168 177 179 178 182 192 209 229 246 266 290 316 332 341 347 349 352 357 2 4 3
193 195 198 199 192 181 176 178 179 175 174 173 173 177 180 181 177 171 171 174 175 172 168 166 164 163 162 161 159 156 155 155 153 153 152 152 152 152 153 157 162 161 158 156 154 157 158 156 161 169 173 172 172 175 173 169 167 165 167 172 178 183 192 196 190 192 195 191 192 209 239 266 279 292 308 322 330 337 346 350 352 353 355 -0 3
199 198 197 200 199 191 184 184 183 180 180 177 173 175 178 180 179 176 176 180 183 181 178 175 174 175 174 171 169 166 164 164 163 161 160 160 158 158 160 166 169 166 164 165 166 168 169 167 172 179 181 179 178 182 183 180 180 181 183 186 193 198 204 213 218 223 229 236 249 257 271 285 292 301 312 322 331 340 346 346 344 344 350 360 2
203 201 200 200 202 199 193 191 190 185 184 182 177 175 175 177 179 179 179 182 184 184 183 181 180 182 184 182 180 179 178 178 178 174 171 172 171 170 172 177 182 183 181 184 186 186 187 186 185 188 192 189 186 188 189 188 191 197 200 202 209 218 222 225 232 246 262 270 278 284 286 289 294 303 314 323 330 336 335 332 334 340 350 357 357
Height
5884 5885 5885 5885 5885 5886 5886 5886 5886 5887 5887 5888 5889 5890 5891 5891 5893 5894 5890 5891 5894 5895 5897 5898 5899 5899 5900 5901 5901 5902 5902 5903 5903 5904 5904 5904 5905 5905 5905 5905 5906 5907 5907 5908 5908 5907 5907 5907 5907 5907 5907 5907 5907 5907 5907 5907 5907 5907 5908 5909 5910 5910 5911 5911 5911 5911 5911 5911 5912 5913 5913 5913 5913 5912 5912 5912 5911 5911 5911 5910 5910 5910 5910 5910 5909
5885 5886 5886 5886 5887 5887 5887 5887 5887 5888 5888 5888 5889 5891 5892 5893 5894 5892 5890 5893 5895 5896 5898 5899 5899 5900 5901 5901 5901 5902 5902 5902 5903 5903 5904 5904 5904 5905 5905 5906 5907 5907 5908 5908 5908 5908 5908 5908 5908 5907 5907 5908 5908 5908 5908 5908 5908 5908 5908 5909 5910 5910 5910 5911 5911 5911 5912 5912 5912 5913 5913 5913 5913 5913 5913 5912 5912 5911 5911 5911 5911 5911 5911 5911 5911
5887 5888 5888 5888 5888 5887 5887 5888 5889 5889 5890 5890 5891 5893 5894 5894 5893 5891 5892 5895 5896 5897 5898 5899 5900 5900 5901 5901 5902 5902 5902 5902 5903 5903 5904 5904 5905 5905 5906 5906 5907 5908 5908 5909 5909 5909 5909 5909 5909 5908 5908 5909 5909 5909 5909 5909 5909 5909 5909 5910 5910 5910 5910 5911 5911 5911 5912 5913 5913 5913 5914 5914 5914 5913 5913 5913 5912 5912 5912 5911 5911 5912 5912 5912 5912
5888 5888 5889 5889 5889 5889 5889 5889 5890 5890 5890 5890 5891 5893 5893 5892 5892 5892 5894 5895 5896 5898 5898 5899 5900 5900 5901 5901 5902 5902 5903 5903 5903 5904 5904 5905 5905 5906 5907 5907 5908 5908 5909 5909 5910 5910 5910 5910 5909 5909 5909 5909 5909 5909 5909 5909 5910 5910 5910 5911 5911 5911 5911 5911 5912 5912 5913 5914 5914 5915 5915 5915 5914 5914 5914 5914 5913 5913 5912 5912 5913 5913 5913 5913 5913
5888 5889 5889 5890 5890 5890 5890 5891 5891 5891 5891 5891 5891 5891 5892 5892 5893 5894 5895 5896 5897 5897 5898 5899 5899 5900 5901 5902 5902 5903 5903 5904 5904 5905 5905 5905 5906 5907 5907 5908 5908 5908 5909 5910 5910 5911 5911 5911 5910 5910 5910 5910 5910 5910 5910 5910 5910 5911 5911 5912 5912 5913 5913 5913 5913 5913 5914 5915 5915 5916 5916 5915 5915 5915 5915 5915 5914 5914 5914 5914 5914 5914 5914 5914 5914
5889 5890 5890 5891 5891 5892 5891 5891 5892 5892 5892 5892 5892 5892 5893 5893 5894 5895 5895 5896 5897 5897 5898 5898 5899 5900 5901 5902 5903 5903 5903 5904 5905 5905 5906 5906 5907 5907 5908 5908 5908 5909 5909 5910 5911 5911 5911 5911 5911 5911 5911 5911 5911 5911 5912 5912 5912 5911 5912 5913 5913 5914 5914 5915 5915 5915 5915 5916 5916 5917 5917 5916 5916 5916 5916 5916 5915 5915 5915 5915 5916 5916 5915 5915 5915
5890 5890 5891 5892 5892 5892 5892 5892 5892 5893 5893 5893 5893 5894 5894 5894 5895 5895 5896 5896 5897 5897 5898 5899 5899 5900 5901 5902 5902 5903 5903 5904 5905 5906 5907 5908 5908 5908 5909 5909 5909 5909 5910 5911 5911 5911 5911 5911 5912 5912 5911 5912 5912 5912 5913 5914 5914 5912 5913 5913 5914 5915 5915 5915 5916 5916 5917 5917 5917 5918 5917 5917 5917 5917 5917 5916 5916 5916 5916 5917 5917 5917 5917 5916 5916
5890 5891 5891 5892 5892 5893 5893 5893 5893 5893 5894 5894 5894 5895 5895 5895 5895 5895 5896 5896 5897 5898 5898 5899 5900 5901 5901 5902 5902 5903 5903 5904 5905 5906 5907 5908 5909 5910 5909 5909 5909 5910 5910 5911 5911 5912 5912 5911 5912 5912 5912 5913 5913 5913 5914 5915 5915 5914 5913 5914 5915 5915 5916 5916 5916 5917 5917 5918 5918 5918 5918 5918 5918 5918 5917 5917 5917 5917 5918 5918 5918 5918 5918 5918 5918
5890 5891 5892 5893 5893 5893 5893 5894 5894 5894 5894 5895 5895 5895 5895 5895 5896 5896 5896 5897 5897 5898 5898 5899 5900 5900 5901 5902 5902 5903 5904 5905 5905 5906 5907 5908 5910 5910 5910 5910 5910 5910 5911 5911 5912 5912 5912 5911 5912 5913 5913 5914 5914 5914 5914 5915 5916 5915 5914 5915 5915 5916 5916 5917 5917 5917 5918 5918 5919 5919 5919 5919 5919 5919 5918 5918 5918 5919 5919 5919 5919 5919 5919 5919 5919
5891 5892 5893 5893 5893 5894 5894 5894 5894 5895 5895 5895 5895 5895 5895 5896 5896 5897 5897 5897 5898 5898 5899 5899 5900 5901 5902 5902 5903 5903 5904 5905 5906 5906 5907 5908 5910 5911 5911 5911 5911 5911 5912 5913 5913 5913 5912 5912 5912 5913 5913 5915 5915 5915 5915 5916 5917 5915 5915 5916 5916 5917 5917 5918 5918 5918 5919 5919 5919 5920 5919 5919 5919 5919 5919 5919 5919 5920 5920 5920 5920 5920 5920 5920 5920
5892 5893 5893 5894 5894 5894 5895 5895 5895 5895 5895 5896 5896 5896 5896 5896 5897 5898 5898 5898 5898 5899 5900 5900 5901 5902 5902 5902 5903 5904 5904 5905 5906 5906 5907 5908 5910 5911 5911 5911 5911 5912 5913 5914 5914 5913 5913 5913 5913 5914 5915 5915 5916 5916 5916 5917 5917 5916 5917 5917 5917 5918 5918 5918 5919 5919 5920 5920 5920 5920 5920 5920 5920 5920 5920 5920 5920 5920 5921 5921 5921 5921 5921 5921 5921
5893 5894 5894 5894 5894 5895 5895 5895 5896 5896 5896 5896 5896 5896 5896 5897 5898 5899 5898 5898 5899 5900 5901 5902 5902 5902 5902 5902 5902 5903 5904 5905 5906 5906 5907 5909 5910 5911 5911 5911 5912 5912 5913 5914 5914 5914 5914 5913 5914 5915 5916 5916 5917 5917 5917 5918 5918 5918 5918 5918 5918 5919 5919 5919 5920 5920 5920 5921 5921 5921 5921 5921 5921 5921 5921 5921 5921 5921 5921 5922 5922 5922 5922 5922 5922
5894 5894 5895 5895 5895 5895 5895 5895 5896 5896 5896 5896 5896 5896 5896 5898 5899 5898 5898 5898 5899 5900 5901 5902 5901 5902 5902 5901 5902 5903 5904 5904 5905 5906 5907 5909 5910 5911 5912 5912 5912 5913 5914 5914 5915 5915 5914 5914 5915 5916 5917 5917 5917 5918 5918 5919 5919 5919 5919 5919 5919 5920 5920 5920 5920 5921 5921 5921 5921 5921 5922 5922 5922 5922 5922 5922 5922 5922 5922 5923 5923 5923 5923 5923 5923
5895 5895 5895 5895 5895 5896 5896 5896 5896 5896 5896 5896 5895 5895 5895 5898 5900 5899 5898 5899 5900 5900 5901 5900 5900 5902 5902 5902 5902 5903 5904 5904 5905 5906 5908 5909 5910 5911 5912 5913 5913 5913 5914 5915 5915 5916 5915 5915 5916 5917 5917 5918 5918 5919 5919 5919 5920 5920 5920 5920 5920 5920 5921 5921 5921 5921 5922 5922 5922 5922 5923 5923 5923 5923 5923 5923 5923 5923 5924 5924 5924 5924 5924 5924 5924
5895 5896 5896 5896 5896 5896 5896 5897 5897 5897 5896 5896 5895 5894 5896 5899 5901 5899 5898 5901 5900 5900 5901 5900 5900 5901 5902 5902 5902 5902 5904 5905 5905 5906 5908 5909 5910 5911 5912 5913 5914 5914 5915 5916 5916 5917 5916 5916 5917 5918 5918 5919 5919 5919 5920 5920 5920 5921 5921 5921 5921 5921 5921 5922 5922 5922 5923 5923 5923 5923 5924 5924 5924 5924 5924 5924 5925 5925 5925 5925 5925 5925 5925 5925 5925
5896 5896 5897 5897 5897 5897 5897 5897 5897 5897 5897 5896 5895 5894 5897 5901 5901 5898 5899 5900 5900 5900 5900 5900 5900 5901 5902 5902 5901 5902 5904 5904 5905 5906 5908 5909 5911 5912 5913 5914 5914 5915 5916 5917 5917 5917 5917 5917 5918 5919 5919 5919 5920 5920 5920 5920 5921 5921 5921 5921 5922 5922 5922 5923 5923 5923 5923 5924 5924 5924 5925 5925 5925 5925 5925 5925 5926 5926 5926 5926 5926 5926 5926 5926 5926
5897 5897 5898 5898 5898 5898 5898 5898 5898 5898 5896 5895 5894 5895 5899 5902 5901 5899 5899 5900 5900 5900 5900 5901 5901 5901 5902 5902 5901 5902 5904 5904 5905 5906 5908 5909 5911 5912 5913 5914 5915 5916 5917 5918 5918 5918 5918 5918 5919 5919 5920 5920 5920 5921 5921 5921 5921 5922 5922 5922 5923 5923 5923 5924 5924 5924 5924 5925 5925 5925 5926 5926 5926 5926 5926 5927 5927 5927 5927 5927 5927 5927 5927 5927 5927
5898 5898 5899 5899 5899 5899 5899 5899 5898 5898 5896 5895 5894 5896 5900 5902 5900 5898 5899 5901 5900 5899 5900 5901 5901 5900 5901 5901 5901 5902 5904 5904 5905 5906 5908 5909 5910 5912 5913 5914 5915 5917 5918 5918 5918 5918 5918 5919 5919 5920 5920 5921 5921 5921 5921 5922 5922 5922 5923 5923 5924 5924 5924 5924 5924 5925 5925 5925 5926 5926 5927 5927 5927 5927 5927 5928 5928 5928 5928 5928 5928 5928 5928 5928 5928
5899 5899 5899 5899 5899 5900 5900 5900 5899 5899 5897 5895 5895 5897 5900 5901 5899 5897 5898 5900 5900 5899 5900 5901 5900 5900 5901 5901 5902 5903 5904 5904 5905 5906 5908 5909 5910 5912 5913 5914 5916 5917 5918 5919 5919 5919 5919 5920 5920 5921 5921 5922 5922 5922 5922 5922 5923 5923 5924 5924 5925 5925 5925 5925 5925 5926 5926 5926 5927 5927 5928 5928 5928 5928 5928 5929 5929 5929 5930 5930 5929 5929 5929 5930 5930
5900 5900 5900 5900 5901 5901 5901 5900 5900 5899 5898 5896 5895 5898 5899 5899 5898 5897 5898 5899 5898 5899 5900 5900 5900 5900 5901 5902 5902 5903 5904 5904 5905 5906 5908 5909 5910 5911 5913 5914 5916 5918 5919 5919 5920 5920 5920 5921 5921 5921 5922 5922 5923 5923 5923 5923 5924 5924 5925 5925 5926 5926 5926 5925 5926 5926 5927 5927 5928 5928 5929 5929 5929 5929 5929 5930 5930 5931 5931 5931 5931 5931 5930 5931 5931
5901 5901 5901 5901 5901 5901 5901 5901 5901 5900 5899 5896 5895 5898 5900 5898 5897 5896 5898 5898 5898 5899 5899 5900 5900 5900 5901 5901 5902 5903 5904 5904 5905 5907 5908 5909 5910 5912 5913 5915 5917 5918 5919 5920 5920 5921 5921 5921 5922 5922 5923 5923 5924 5923 5924 5924 5925 5925 5926 5926 5927 5927 5926 5926 5927 5927 5928 5929 5929 5929 5930 5930 5929 5930 5930 5931 5931 5932 5932 5932 5932 5932 5932 5932 5932
5902 5902 5902 5902 5902 5902 5902 5901 5901 5900 5899 5898 5896 5898 5900 5899 5897 5896 5898 5899 5899 5899 5899 5899 5900 5900 5901 5901 5901 5903 5904 5904 5906 5907 5908 5909 5910 5912 5914 5915 5917 5918 5919 5920 5920 5921 5922 5922 5922 5923 5924 5924 5924 5924 5925 5925 5926 5926 5927 5927 5928 5927 5927 5927 5928 5928 5929 5930 5930 5930 5930 5931 5930 5931 5931 5932 5932 5933 5933 5933 5933 5933 5933 5933 5933
5902 5902 5903 5903 5902 5902 5902 5902 5901 5901 5900 5899 5897 5897 5899 5900 5898 5897 5897 5899 5899 5899 5899 5899 5900 5900 5901 5901 5902 5903 5904 5905 5906 5907 5908 5909 5911 5912 5914 5915 5917 5918 5919 5920 5921 5921 5922 5923 5923 5923 5924 5924 5925 5925 5926 5926 5927 5927 5928 5928 5928 5928 5928 5929 5929 5930 5930 5931 5931 5931 5932 5932 5932 5932 5932 5933 5933 5934 5934 5934 5934 5934 5934 5934 5933
5902 5903 5903 5903 5903 5903 5902 5902 5902 5901 5900 5899 5898 5897 5898 5900 5898 5897 5897 5898 5900 5900 5899 5900 5900 5901 5902 5902 5903 5904 5905 5906 5907 5907 5908 5909 5911 5912 5914 5916 5917 5919 5920 5920 5921 5922 5923 5923 5924 5924 5924 5925 5925 5926 5927 5927 5928 5928 5929 5929 5929 5929 5929 5929 5930 5931 5932 5932 5932 5932 5933 5933 5933 5933 5933 5934 5934 5935 5935 5935 5935 5935 5935 5935 5934
5903 5903 5904 5904 5904 5903 5903 5903 5902 5902 5901 5900 5899 5897 5897 5900 5900 5898 5897 5899 5900 5900 5900 5900 5901 5901 5902 5903 5904 5904 5905 5906 5907 5908 5909 5909 5911 5913 5914 5916 5917 5919 5920 5921 5922 5923 5923 5924 5924 5925 5925 5926 5926 5927 5928 5928 5929 5930 5930 5930 5930 5930 5930 5930 5931 5932 5933 5933 5933 5934 5934 5933 5934 5934 5935 5935 5936 5936 5936 5936 5936 5936 5936 5935 5935
5903 5904 5904 5904 5904 5904 5903 5903 5903 5902 5902 5901 5900 5897 5897 5900 5901 5900 5899 5899 5900 5900 5901 5901 5902 5902 5903 5904 5904 5905 5906 5907 5908 5909 5910 5910 5912 5914 5915 5917 5918 5920 5921 5922 5922 5923 5924 5925 5925 5926 5926 5927 5928 5929 5929 5930 5930 5931 5931 5931 5931 5931 5931 5931 5932 5933 5934 5934 5934 5934 5934 5934 5935 5935 5936 5936 5937 5937 5937 5937 5937 5937 5936 5936 5935
5904 5904 5904 5904 5904 5904 5904 5903 5903 5903 5902 5902 5901 5899 5898 5900 5902 5902 5901 5900 5901 5901 5902 5903 5903 5904 5904 5905 5905 5906 5907 5908 5909 5909 5910 5912 5913 5915 5917 5918 5919 5921 5922 5923 5923 5924 5925 5926 5926 5927 5928 5929 5930 5930 5931 5931 5932 5932 5932 5932 5931 5932 5932 5933 5934 5934 5935 5935 5935 5935 5935 5935 5936 5936 5937 5937 5938 5938 5938 5938 5938 5937 5937 5936 5936
5904 5904 5905 5905 5905 5905 5905 5904 5904 5904 5903 5903 5902 5901 5899 5900 5902 5903 5903 5902 5902 5902 5902 5903 5904 5905 5905 5906 5907 5907 5908 5909 5909 5910 5912 5913 5915 5916 5918 5919 5920 5922 5923 5924 5925 5925 5926 5927 5927 5928 5929 5930 5931 5932 5932 5933 5933 5933 5933 5933 5932 5933 5933 5934 5935 5935 5936 5936 5936 5936 5936 5936 5937 5937 5938 5938 5939 5939 5939 5939 5938 5938 5937 5937 5936
5905 5905 5905 5906 5906 5906 5905 5905 5905 5905 5904 5904 5903 5902 5901 5901 5902 5903 5904 5904 5903 5903 5903 5903 5904 5905 5906 5907 5908 5908 5909 5909 5910 5912 5913 5915 5916 5918 5919 5920 5921 5922 5923 5924 5925 5926 5927 5928 5928 5929 5930 5931 5932 5932 5933 5934 5934 5934 5934 5934 5934 5934 5934 5935 5936 5937 5937 5937 5937 5937 5937 5938 5938 5939 5939 5939 5939 5939 5939 5939 5939 5938 5938 5937 5937
5905 5906 5906 5906 5906 5906 5906 5906 5906 5905 5905 5905 5904 5904 5903 5903 5903 5903 5904 5905 5905 5905 5904 5904 5905 5906 5907 5907 5908 5909 5910 5911 5912 5913 5915 5916 5917 5919 5920 5921 5922 5923 5924 5925 5926 5927 5928 5929 5930 5931 5932 5932 5932 5933 5934 5934 5935 5935 5935 5935 5935 5935 5936 5936 5937 5938 5938 5938 5939 5939 5939 5939 5939 5940 5940 5940 5940 5940 5940 5939 5939 5939 5938 5938 5937
5906 5906 5906 5906 5906 5906 5906 5906 5906 5906 5906 5906 5906 5905 5905 5905 5904 5904 5905 5906 5906 5907 5907 5907 5908 5908 5908 5909 5910 5911 5912 5913 5914 5915 5916 5917 5919 5919 5920 5922 5922 5923 5924 5926 5927 5928 5929 5930 5931 5932 5932 5933 5933 5934 5934 5935 5936 5936 5936 5936 5936 5936 5937 5938 5938 5939 5939 5940 5940 5940 5940 5940 5941 5941 5941 5941 5940 5940 5940 5940 5939 5939 5938 5938 5937
5906 5906 5907 5907 5907 5907 5907 5907 5907 5907 5907 5907 5907 5907 5907 5907 5906 5906 5906 5907 5907 5908 5909 5909 5910 5910 5910 5911 5912 5913 5914 5915 5916 5917 5918 5919 5920 5920 5921 5922 5923 5924 5925 5927 5928 5929 5930 5931 5932 5932 5933 5933 5934 5934 5935 5936 5936 5936 5936 5936 5937 5937 5938 5939 5940 5940 5941 5941 5941 5941 5941 5941 5942 5941 5941 5941 5941 5941 5940 5940 5940 5939 5939 5938 5938
5907 5907 5907 5907 5907 5908 5908 5908 5908 5908 5908 5908 5908 5908 5908 5908 5908 5908 5908 5908 5908 5909 5910 5910 5911 5911 5912 5913 5913 5914 5915 5916 5917 5918 5919 5920 5921 5921 5922 5923 5924 5925 5926 5928 5929 5930 5931 5932 5932 5933 5933 5934 5934 5935 5936 5936 5937 5937 5937 5937 5938 5939 5940 5940 5941 5942 5942 5943 5943 5942 5942 5942 5942 5942 5942 5942 5941 5941 5941 5940 5940 5939 5939 5938 5938
5907 5907 5908 5908 5908 5908 5908 5909 5909 5909 5909 5909 5909 5909 5910 5910 5910 5910 5910 5910 5910 5910 5910 5911 5911 5912 5913 5913 5914 5915 5916 5917 5918 5919 5920 5921 5922 5922 5923 5924 5925 5926 5928 5929 5930 5931 5931 5932 5933 5933 5934 5934 5935 5936 5936 5937 5937 5937 5937 5938 5939 5940 5941 5941 5942 5942 5943 5943 5944 5943 5943 5943 5943 5943 5943 5942 5942 5941 5941 5940 5940 5940 5939 5938 5938
5908 5908 5909 5909 5909 5909 5909 5910 5910 5910 5911 5911 5911 5911 5911 5911 5912 5912 5912 5911 5911 5911 5912 5912 5913 5913 5914 5914 5915 5915 5916 5917 5918 5919 5920 5922 5923 5923 5924 5925 5927 5928 5929 5930 5931 5931 5932 5933 5934 5934 5935 5935 5936 5936 5937 5937 5937 5938 5938 5939 5940 5941 5942 5942 5943 5943 5944 5944 5944 5944 5944 5944 5944 5944 5943 5943 5942 5942 5941 5941 5940 5940 5939 5938 5937
5908 5909 5909 5910 5910 5910 5910 5911 5911 5911 5912 5912 5912 5912 5912 5913 5913 5913 5913 5913 5913 5913 5913 5914 5914 5915 5915 5915 5916 5916 5917 5918 5919 5920 5921 5922 5923 5925 5926 5927 5928 5929 5930 5932 5932 5932 5933 5934 5935 5935 5935 5936 5936 5936 5937 5938 5938 5939 5939 5940 5941 5942 5942 5943 5943 5944 5944 5944 5945 5945 5945 5945 5944 5944 5944 5943 5943 5942 5942 5941 5940 5940 5939 5938 5937
5909 5909 5910 5911 5911 5911 5911 5912 5912 5912 5913 5913 5913 5914 5914 5914 5915 5915 5914 5915 5915 5915 5915 5915 5916 5916 5917 5917 5918 5918 5919 5919 5920 5921 5922 5923 5925 5926 5927 5929 5930 5931 5932 5933 5933 5933 5934 5935 5936 5936 5936 5936 5936 5937 5937 5938 5939 5939 5940 5941 5942 5943 5944 5944 5945 5945 5945 5945 5945 5946 5945 5945 5945 5945 5944 5944 5943 5943 5942 5941 5941 5940 5939 5938 5938
5910 5910 5910 5911 5912 5912 5912 5913 5913 5913 5914 5914 5914 5915 5915 5915 5916 5916 5916 5916 5916 5916 5917 5917 5918 5918 5919 5919 5920 5920 5921 5921 5922 5922 5923 5925 5926 5927 5929 5930 5931 5932 5933 5933 5934 5934 5935 5936 5936 5936 5936 5936 5937 5937 5938 5938 5939 5940 5941 5942 5943 5944 5945 5945 5946 5946 5946 5946 5946 5946 5946 5946 5945 5945 5945 5944 5943 5943 5942 5942 5941 5940 5939 5939 5938
5910 5910 5911 5912 5912 5913 5913 5914 5914 5914 5915 5915 5915 5916 5916 5917 5917 5917 5917 5917 5918 5918 5919 5919 5920 5920 5921 5921 5922 5923 5923 5923 5924 5924 5925 5926 5928 5929 5930 5931 5932 5933 5934 5934 5935 5936 5936 5937 5937 5937 5937 5937 5938 5938 5939 5939 5939 5940 5941 5942 5943 5944 5945 5946 5947 5947 5947 5947 5946 5946 5946 5946 5946 5945 5945 5944 5944 5943 5943 5942 5941 5941 5940 5939 5938
5911 5911 5911 5912 5913 5914 5914 5914 5915 5915 5916 5916 5916 5917 5917 5918 5918 5918 5918 5918 5919 5920 5920 5921 5922 5922 5923 5923 5924 5925 5925 5926 5926 5927 5927 5928 5929 5930 5931 5932 5933 5934 5935 5935 5936 5937 5937 5938 5937 5937 5938 5938 5939 5939 5939 5940 5940 5941 5942 5943 5944 5945 5946 5946 5947 5947 5947 5947 5947 5946 5946 5946 5946 5946 5945 5945 5944 5943 5943 5943 5942 5941 5940 5939 5938
5912 5911 5912 5913 5914 5914 5915 5915 5916 5916 5916 5917 5917 5918 5918 5919 5919 5919 5919 5920 5920 5921 5922 5922 5923 5924 5925 5925 5926 5927 5927 5928 5929 5929 5930 5930 5931 5931 5932 5933 5934 5935 5936 5936 5937 5937 5938 5938 5938 5938 5939 5939 5940 5940 5940 5940 5941 5941 5942 5943 5944 5945 5946 5947 5947 5948 5948 5947 5947 5947 5946 5946 5946 5946 5945 5945 5944 5944 5943 5943 5942 5941 5940 5940 5939
5913 5912 5912 5913 5914 5915 5915 5915 5916 5917 5917 5918 5918 5919 5919 5920 5920 5921 5921 5921 5922 5922 5923 5924 5925 5926 5926 5927 5928 5928 5929 5930 5930 5931 5932 5932 5932 5932 5933 5933 5934 5935 5936 5937 5938 5938 5938 5938 5939 5939 5940 5940 5940 5941 5941 5941 5941 5942 5943 5944 5945 5946 5946 5947 5948 5948 5948 5948 5947 5947 5946 5946 5946 5946 5945 5945 5944 5944 5943 5943 5942 5941 5941 5940 5939
5913 5913 5913 5914 5914 5916 5916 5916 5916 5917 5918 5919 5919 5920 5921 5921 5922 5922 5922 5922 5923 5923 5924 5925 5926 5927 5928 5928 5929 5930 5930 5931 5932 5932 5933 5933 5933 5934 5934 5934 5935 5936 5937 5937 5938 5938 5938 5939 5939 5940 5940 5941 5941 5941 5941 5942 5942 5943 5943 5944 5945 5946 5946 5947 5948 5948 5948 5948 5948 5947 5947 5946 5946 5946 5945 5945 5944 5944 5943 5943 5942 5942 5941 5940 5940
5913 5914 5914 5914 5915 5916 5916 5917 5917 5918 5919 5919 5920 5921 5922 5922 5923 5923 5923 5924 5924 5925 5925 5926 5927 5928 5928 5929 5930 5930 5931 5932 5933 5933 5934 5934 5935 5935 5935 5935 5936 5937 5937 5938 5938 5938 5939 5939 5940 5941 5941 5941 5941 5941 5942 5943 5943 5943 5944 5944 5945 5946 5946 5946 5947 5948 5948 5948 5948 5947 5947 5946 5946 5946 5945 5945 5945 5944 5943 5943 5942 5942 5941 5940 5940
5913 5914 5914 5915 5916 5916 5917 5917 5918 5918 5919 5920 5921 5922 5922 5923 5924 5924 5924 5925 5925 5926 5926 5926 5927 5928 5929 5930 5930 5931 5932 5933 5933 5934 5935 5935 5935 5936 5936 5936 5937 5937 5938 5938 5939 5939 5939 5940 5941 5941 5941 5941 5941 5942 5943 5944 5944 5944 5944 5944 5945 5946 5946 5946 5947 5947 5947 5947 5947 5947 5947 5946 5946 5946 5946 5945 5945 5944 5943 5943 5943 5942 5941 5941 5940
5913 5914 5914 5915 5916 5916 5917 5918 5918 5919 5919 5920 5921 5922 5923 5923 5924 5925 5925 5926 5926 5927 5927 5928 5928 5929 5930 5930 5931 5932 5932 5933 5934 5934 5935 5936 5936 5936 5937 5937 5938 5938 5938 5939 5939 5939 5940 5940 5941 5941 5942 5942 5942 5943 5943 5944 5945 5945 5945 5944 5945 5946 5946 5946 5946 5946 5946 5946 5946 5947 5947 5947 5946 5946 5945 5945 5944 5944 5943 5943 5943 5942 5942 5941 5940
5913 5914 5915 5915 5916 5917 5917 5918 5919 5919 5920 5921 5921 5922 5923 5924 5924 5925 5925 5926 5927 5928 5928 5929 5929 5930 5930 5931 5932 5932 5933 5933 5934 5935 5935 5936 5936 5937 5937 5938 5938 5938 5939 5939 5939 5940 5940 5941 5941 5942 5942 5943 5943 5943 5944 5945 5946 5946 5946 5945 5946 5946 5946 5945 5945 5946 5946 5945 5946 5946 5946 5946 5946 5945 5945 5944 5944 5943 5943 5943 5943 5942 5942 5941 5940
5913 5914 5914 5915 5916 5917 5917 5918 5919 5919 5920 5921 5922 5923 5923 5924 5925 5925 5926 5927 5928 5928 5929 5929 5930 5930 5931 5931 5932 5933 5933 5934 5934 5935 5935 5936 5937 5937 5938 5938 5939 5939 5939 5940 5940 5940 5941 5942 5942 5943 5943 5943 5944 5944 5945 5945 5946 5946 5946 5946 5946 5946 5946 5946 5945 5945 5945 5945 5945 5946 5946 5946 5946 5945 5945 5944 5944 5944 5944 5943 5943 5942 5942 5941 5940
5912 5913 5914 5915 5916 5917 5917 5918 5919 5920 5920 5921 5922 5923 5924 5925 5925 5925 5926 5927 5928 5928 5929 5930 5930 5931 5931 5932 5933 5933 5933 5934 5934 5935 5936 5936 5937 5937 5938 5938 5939 5939 5940 5940 5941 5941 5942 5942 5943 5943 5944 5944 5944 5945 5945 5946 5946 5946 5946 5947 5947 5947 5946 5946 5946 5946 5946 5946 5946 5946 5946 5946 5946 5945 5945 5945 5944 5944 5944 5943 5943 5943 5942 5941 5940
5911 5912 5914 5915 5916 5917 5917 5918 5919 5920 5920 5921 5923 5924 5924 5925 5925 5925 5926 5927 5928 5929 5929 5930 5930 5931 5931 5932 5933 5933 5934 5934 5935 5935 5936 5937 5937 5937 5938 5939 5939 5940 5940 5941 5941 5942 5942 5943 5944 5944 5944 5945 5945 5945 5946 5946 5946 5946 5947 5947 5947 5947 5947 5947 5947 5947 5946 5946 5946 5946 5946 5946 5946 5946 5945 5945 5945 5944 5944 5944 5944 5943 5942 5941 5940
5910 5911 5913 5915 5916 5916 5917 5918 5919 5919 5920 5921 5923 5924 5925 5925 5926 5926 5926 5927 5928 5929 5929 5930 5930 5931 5932 5932 5933 5934 5934 5935 5935 5936 5936 5937 5937 5938 5938 5939 5940 5940 5941 5941 5941 5942 5942 5943 5944 5945 5945 5945 5945 5946 5946 5946 5947 5947 5947 5947 5947 5947 5947 5947 5947 5947 5947 5947 5946 5946 5946 5946 5946 5946 5946 5945 5945 5944 5944 5944 5943 5943 5942 5941 5940